�������l�o���
Date,Time,MP-1(��Sv/h),MP-2(��Sv/h),MP-3(��Sv/h),MP-4(��Sv/h),MP-5(��Sv/h),MP-6(��Sv/h),MP-7(��Sv/h),MP-8(��Sv/h),����,����(m/s),���J
2021/07/18,00:00,0.615,0.917,0.587,1.111,0.799,0.371,0.641,0.598,��쐼,4.8,��
2021/07/18,00:10,0.616,0.920,0.587,1.110,0.801,0.371,0.641,0.598,��쐼,4.8,��
2021/07/18,00:20,0.616,0.920,0.588,1.111,0.800,0.372,0.641,0.598,��쐼,4.9,��
2021/07/18,00:30,0.615,0.918,0.588,1.111,0.798,0.371,0.641,0.599,��쐼,4.2,��
2021/07/18,00:40,0.615,0.919,0.588,1.110,0.801,0.373,0.643,0.599,��쐼,3.7,��
2021/07/18,00:50,0.616,0.922,0.587,1.110,0.799,0.372,0.641,0.599,��쐼,3.6,��
2021/07/18,01:00,0.616,0.921,0.587,1.111,0.800,0.371,0.641,0.598,��,3.6,��
2021/07/18,01:10,0.616,0.920,0.589,1.111,0.800,0.373,0.640,0.598,��쐼,3.0,��
2021/07/18,01:20,0.617,0.921,0.588,1.111,0.799,0.372,0.642,0.598,�쐼,2.0,��
2021/07/18,01:30,0.617,0.921,0.589,1.110,0.801,0.373,0.642,0.599,��,1.2,��
2021/07/18,01:40,0.615,0.921,0.588,1.114,0.800,0.373,0.642,0.599,�k��,2.3,��
2021/07/18,01:50,0.617,0.923,0.588,1.112,0.798,0.373,0.643,0.597,�k��,2.2,��
2021/07/18,02:00,0.618,0.920,0.588,1.112,0.802,0.373,0.641,0.598,�k�k��,2.1,��
2021/07/18,02:10,0.618,0.922,0.587,1.111,0.801,0.373,0.642,0.600,�k�k��,1.9,��
2021/07/18,02:20,0.616,0.919,0.589,1.110,0.801,0.373,0.641,0.598,�k��,1.5,��
2021/07/18,02:30,0.618,0.922,0.587,1.111,0.801,0.373,0.642,0.598,�k��,2.3,��
2021/07/18,02:40,0.616,0.921,0.588,1.110,0.802,0.372,0.641,0.599,���k��,2.0,��
2021/07/18,02:50,0.616,0.920,0.588,1.112,0.800,0.373,0.642,0.599,���k��,1.9,��
2021/07/18,03:00,0.617,0.922,0.587,1.114,0.800,0.372,0.641,0.600,���k��,0.9,��
2021/07/18,03:10,0.618,0.921,0.589,1.111,0.801,0.372,0.642,0.601,���쐼,0.9,��
2021/07/18,03:20,0.617,0.919,0.588,1.113,0.799,0.374,0.643,0.599,��쐼,1.5,��
2021/07/18,03:30,0.618,0.920,0.589,1.111,0.801,0.374,0.642,0.599,�쐼,1.7,��
2021/07/18,03:40,0.616,0.922,0.588,1.110,0.801,0.374,0.642,0.599,���쐼,1.2,��
2021/07/18,03:50,0.617,0.920,0.588,1.109,0.803,0.372,0.641,0.599,���쐼,3.0,��
2021/07/18,04:00,0.617,0.920,0.586,1.112,0.799,0.372,0.642,0.599,��,2.6,��
2021/07/18,04:10,0.617,0.919,0.587,1.112,0.799,0.373,0.641,0.599,���k��,1.2,��
2021/07/18,04:20,0.616,0.920,0.586,1.111,0.797,0.373,0.641,0.598,�k�k��,1.4,��
2021/07/18,04:30,0.617,0.919,0.587,1.110,0.799,0.373,0.641,0.599,�k�k��,2.5,��
2021/07/18,04:40,0.617,0.921,0.586,1.113,0.801,0.373,0.643,0.598,���k��,1.5,��
2021/07/18,04:50,0.616,0.919,0.588,1.111,0.800,0.372,0.642,0.597,-,CALM,��
2021/07/18,05:00,0.617,0.918,0.586,1.110,0.799,0.372,0.641,0.599,-,CALM,��
2021/07/18,05:10,0.616,0.920,0.586,1.111,0.799,0.372,0.641,0.599,��쓌,0.8,��
2021/07/18,05:20,0.616,0.921,0.588,1.111,0.800,0.372,0.643,0.599,��쐼,0.9,��
2021/07/18,05:30,0.617,0.918,0.587,1.110,0.800,0.373,0.641,0.599,��쐼,0.9,��
2021/07/18,05:40,0.616,0.919,0.585,1.111,0.799,0.372,0.642,0.599,��쐼,0.9,��
2021/07/18,05:50,0.616,0.919,0.588,1.111,0.800,0.374,0.643,0.599,-,CALM,��
2021/07/18,06:00,0.615,0.920,0.587,1.111,0.798,0.373,0.643,0.598,��쐼,0.8,��
2021/07/18,06:10,0.617,0.918,0.586,1.111,0.799,0.373,0.642,0.598,��쓌,1.2,��
2021/07/18,06:20,0.616,0.920,0.586,1.114,0.798,0.372,0.642,0.601,��쐼,1.2,��
2021/07/18,06:30,0.619,0.919,0.587,1.110,0.799,0.373,0.642,0.598,��쐼,1.2,��
2021/07/18,06:40,0.618,0.920,0.588,1.112,0.797,0.374,0.642,0.597,�쐼,1.1,��
2021/07/18,06:50,0.616,0.920,0.587,1.112,0.800,0.373,0.643,0.600,-,CALM,��
2021/07/18,07:00,0.617,0.918,0.587,1.111,0.799,0.372,0.643,0.599,��쐼,0.8,��
2021/07/18,07:10,0.615,0.920,0.588,1.112,0.798,0.372,0.641,0.599,��쐼,0.6,��
2021/07/18,07:20,0.617,0.918,0.586,1.113,0.799,0.373,0.643,0.599,��쓌,0.6,��
2021/07/18,07:30,0.615,0.921,0.587,1.111,0.799,0.372,0.643,0.597,-,CALM,��
2021/07/18,07:40,0.616,0.919,0.585,1.112,0.799,0.372,0.642,0.599,�쓌,0.9,��
2021/07/18,07:50,0.616,0.919,0.588,1.113,0.796,0.372,0.643,0.600,-,CALM,��
2021/07/18,08:00,0.615,0.918,0.586,1.109,0.800,0.373,0.644,0.598,���쓌,0.6,��
2021/07/18,08:10,0.615,0.922,0.587,1.111,0.800,0.373,0.642,0.600,��,1.1,��
2021/07/18,08:20,0.618,0.921,0.587,1.112,0.799,0.372,0.643,0.599,���k��,0.8,��
2021/07/18,08:30,0.616,0.921,0.588,1.112,0.800,0.373,0.643,0.598,��,1.4,��
2021/07/18,08:40,0.617,0.921,0.586,1.111,0.798,0.372,0.640,0.595,���쓌,1.5,��
2021/07/18,08:50,0.615,0.918,0.585,1.113,0.801,0.372,0.642,0.596,���쓌,1.2,��
2021/07/18,09:00,0.616,0.921,0.586,1.110,0.797,0.372,0.643,0.596,���쓌,1.9,��
2021/07/18,09:10,0.617,0.922,0.586,1.114,0.800,0.371,0.642,0.598,��,2.0,��
2021/07/18,09:20,0.618,0.921,0.586,1.112,0.801,0.371,0.643,0.598,��,2.0,��
2021/07/18,09:30,0.616,0.921,0.586,1.112,0.799,0.370,0.642,0.597,���쓌,2.3,��
2021/07/18,09:40,0.616,0.923,0.585,1.112,0.799,0.371,0.642,0.597,���쓌,2.3,��
2021/07/18,09:50,0.617,0.922,0.587,1.111,0.799,0.373,0.643,0.598,���k��,2.6,��
2021/07/18,10:00,0.616,0.920,0.585,1.110,0.797,0.372,0.643,0.597,���쓌,2.9,��
2021/07/18,10:10,0.618,0.922,0.588,1.111,0.801,0.372,0.643,0.598,���쓌,2.5,��
2021/07/18,10:20,0.617,0.921,0.587,1.113,0.802,0.370,0.643,0.598,���쓌,1.7,��
2021/07/18,10:30,0.617,0.922,0.586,1.113,0.798,0.371,0.641,0.597,���쓌,3.0,��
2021/07/18,10:40,0.618,0.920,0.587,1.114,0.800,0.372,0.642,0.598,���쓌,3.0,��
2021/07/18,10:50,0.619,0.922,0.587,1.112,0.802,0.372,0.644,0.598,���쓌,3.4,��
2021/07/18,11:00,0.618,0.920,0.588,1.113,0.804,0.371,0.642,0.598,���쓌,3.5,��
2021/07/18,11:10,0.621,0.921,0.588,1.112,0.801,0.373,0.642,0.597,���쓌,3.2,��
2021/07/18,11:20,0.620,0.923,0.588,1.111,0.804,0.371,0.643,0.598,���쓌,3.8,��
2021/07/18,11:30,0.618,0.921,0.587,1.112,0.802,0.372,0.642,0.597,�쓌,3.9,��
2021/07/18,11:40,0.618,0.922,0.588,1.113,0.803,0.371,0.644,0.599,�쓌,4.6,��
2021/07/18,11:50,0.620,0.923,0.588,1.112,0.803,0.373,0.643,0.598,��쓌,4.6,��
2021/07/18,12:00,0.619,0.922,0.587,1.111,0.804,0.372,0.643,0.600,��쓌,4.6,��
2021/07/18,12:10,0.619,0.925,0.588,1.113,0.805,0.373,0.644,0.598,��쓌,3.3,��
2021/07/18,12:20,0.620,0.923,0.588,1.113,0.805,0.372,0.644,0.600,�쓌,3.6,��
2021/07/18,12:30,0.619,0.925,0.589,1.114,0.805,0.372,0.642,0.600,��쓌,3.4,��
2021/07/18,12:40,0.619,0.925,0.588,1.114,0.804,0.370,0.642,0.599,��쓌,3.4,��
2021/07/18,12:50,0.620,0.923,0.589,1.114,0.806,0.374,0.643,0.598,��쓌,3.4,��
2021/07/18,13:00,0.619,0.925,0.588,1.114,0.806,0.373,0.642,0.599,��쓌,3.9,��
2021/07/18,13:10,0.620,0.926,0.589,1.114,0.806,0.373,0.642,0.598,��쓌,4.0,��
2021/07/18,13:20,0.620,0.924,0.589,1.115,0.806,0.373,0.643,0.598,��쓌,4.0,��
2021/07/18,13:30,0.618,0.926,0.589,1.115,0.805,0.372,0.643,0.601,��쓌,3.6,��
2021/07/18,13:40,0.620,0.927,0.589,1.113,0.807,0.373,0.644,0.600,�쓌,3.2,��
2021/07/18,13:50,0.620,0.925,0.589,1.115,0.805,0.372,0.642,0.599,�쓌,3.9,��
2021/07/18,14:00,0.621,0.926,0.590,1.115,0.805,0.374,0.643,0.599,�쓌,4.0,��
2021/07/18,14:10,0.619,0.925,0.593,1.115,0.806,0.373,0.643,0.600,��쓌,5.4,��
2021/07/18,14:20,0.620,0.925,0.592,1.114,0.807,0.373,0.643,0.599,��쓌,6.3,��
2021/07/18,14:30,0.620,0.924,0.592,1.115,0.807,0.374,0.644,0.600,��쓌,5.2,��
2021/07/18,14:40,0.620,0.927,0.591,1.116,0.807,0.374,0.645,0.600,��쓌,5.3,��
2021/07/18,14:50,0.618,0.923,0.592,1.114,0.806,0.374,0.643,0.600,��쓌,5.6,��
2021/07/18,15:00,0.618,0.926,0.593,1.114,0.807,0.375,0.646,0.600,��쓌,5.5,��
2021/07/18,15:10,0.620,0.926,0.592,1.115,0.809,0.373,0.644,0.598,��쓌,7.8,��
2021/07/18,15:20,0.621,0.927,0.592,1.114,0.806,0.374,0.645,0.600,��,5.1,��
2021/07/18,15:30,0.620,0.925,0.593,1.118,0.808,0.373,0.645,0.599,��,5.3,��
2021/07/18,15:40,0.621,0.926,0.591,1.116,0.810,0.373,0.643,0.598,��,3.9,��
2021/07/18,15:50,0.620,0.926,0.589,1.117,0.807,0.373,0.645,0.598,��,3.8,��
2021/07/18,16:00,0.618,0.926,0.590,1.119,0.808,0.373,0.643,0.598,��,4.5,��
2021/07/18,16:10,0.621,0.929,0.592,1.119,0.808,0.375,0.645,0.598,��,4.5,��
2021/07/18,16:20,0.620,0.925,0.590,1.119,0.807,0.375,0.644,0.598,��쓌,5.2,��
2021/07/18,16:30,0.619,0.927,0.590,1.120,0.807,0.374,0.644,0.599,��쓌,5.5,��
2021/07/18,16:40,0.620,0.926,0.590,1.120,0.807,0.374,0.645,0.599,��,4.9,��
2021/07/18,16:50,0.620,0.927,0.591,1.119,0.806,0.375,0.642,0.596,��,4.8,��
2021/07/18,17:00,0.619,0.929,0.593,1.120,0.808,0.375,0.643,0.598,��,4.5,��
2021/07/18,17:10,0.620,0.927,0.590,1.118,0.809,0.376,0.644,0.598,��,3.5,��
2021/07/18,17:20,0.619,0.925,0.590,1.119,0.807,0.374,0.642,0.599,��,3.3,��
2021/07/18,17:30,0.620,0.926,0.590,1.119,0.808,0.375,0.643,0.597,��,4.5,��
2021/07/18,17:40,0.620,0.926,0.588,1.118,0.808,0.374,0.643,0.598,��,6.2,��
2021/07/18,17:50,0.620,0.926,0.589,1.119,0.806,0.375,0.643,0.599,��,5.6,��
2021/07/18,18:00,0.619,0.927,0.588,1.121,0.808,0.373,0.644,0.598,��,6.1,��
2021/07/18,18:10,0.620,0.928,0.587,1.119,0.809,0.372,0.644,0.599,��,6.1,��
2021/07/18,18:20,0.621,0.924,0.590,1.119,0.808,0.374,0.644,0.598,��,4.9,��
2021/07/18,18:30,0.619,0.927,0.589,1.119,0.807,0.374,0.642,0.599,��,5.4,��
2021/07/18,18:40,0.618,0.926,0.590,1.118,0.807,0.372,0.644,0.598,��,4.8,��
2021/07/18,18:50,0.619,0.926,0.589,1.115,0.809,0.373,0.643,0.599,��,3.1,��
2021/07/18,19:00,0.619,0.927,0.588,1.117,0.809,0.372,0.643,0.597,��쐼,2.0,��
2021/07/18,19:10,0.621,0.925,0.589,1.120,0.808,0.371,0.642,0.598,��쐼,0.6,��
2021/07/18,19:20,0.618,0.926,0.590,1.118,0.809,0.372,0.644,0.597,��,1.4,��
2021/07/18,19:30,0.620,0.927,0.589,1.117,0.808,0.374,0.644,0.598,-,CALM,��
2021/07/18,19:40,0.619,0.926,0.589,1.114,0.809,0.374,0.642,0.599,��쓌,1.2,��
2021/07/18,19:50,0.620,0.927,0.590,1.119,0.809,0.373,0.642,0.599,��,1.2,��
2021/07/18,20:00,0.620,0.927,0.592,1.120,0.807,0.374,0.644,0.599,��,0.9,��
2021/07/18,20:10,0.622,0.927,0.589,1.118,0.809,0.373,0.644,0.600,��쐼,1.2,��
2021/07/18,20:20,0.622,0.926,0.590,1.120,0.812,0.374,0.645,0.598,���쐼,1.9,��
2021/07/18,20:30,0.622,0.928,0.593,1.119,0.809,0.376,0.644,0.602,�쐼,1.6,��
2021/07/18,20:40,0.623,0.931,0.592,1.120,0.809,0.374,0.644,0.600,�쐼,1.2,��
2021/07/18,20:50,0.621,0.930,0.591,1.120,0.809,0.376,0.642,0.601,��쐼,1.2,��
2021/07/18,21:00,0.623,0.929,0.590,1.122,0.810,0.373,0.644,0.601,��,1.2,��
2021/07/18,21:10,0.621,0.929,0.591,1.122,0.811,0.376,0.644,0.601,��,1.5,��
2021/07/18,21:20,0.623,0.929,0.591,1.121,0.809,0.374,0.643,0.601,��쐼,1.5,��
2021/07/18,21:30,0.619,0.929,0.591,1.119,0.809,0.375,0.644,0.601,��쐼,1.2,��
2021/07/18,21:40,0.623,0.929,0.591,1.121,0.808,0.375,0.643,0.600,���쐼,0.8,��
2021/07/18,21:50,0.623,0.929,0.593,1.121,0.808,0.376,0.645,0.601,��쐼,0.6,��
2021/07/18,22:00,0.620,0.928,0.592,1.122,0.809,0.375,0.645,0.601,-,CALM,��
2021/07/18,22:10,0.622,0.928,0.591,1.121,0.810,0.375,0.643,0.600,�쐼,0.9,��
2021/07/18,22:20,0.621,0.927,0.591,1.119,0.811,0.377,0.644,0.600,�쐼,0.8,��
2021/07/18,22:30,0.623,0.928,0.591,1.121,0.810,0.377,0.644,0.602,���쐼,0.9,��
2021/07/18,22:40,0.622,0.929,0.592,1.121,0.809,0.375,0.644,0.601,���쐼,1.1,��
2021/07/18,22:50,0.623,0.929,0.592,1.121,0.810,0.376,0.645,0.600,-,CALM,��
2021/07/18,23:00,0.622,0.929,0.592,1.120,0.811,0.374,0.646,0.601,�k,0.9,��
2021/07/18,23:10,0.623,0.931,0.593,1.122,0.808,0.375,0.644,0.601,�k,1.2,��
2021/07/18,23:20,0.621,0.930,0.593,1.120,0.809,0.377,0.645,0.599,�k,0.6,��
2021/07/18,23:30,0.621,0.926,0.590,1.122,0.811,0.374,0.645,0.599,�k,1.5,��
2021/07/18,23:40,0.622,0.927,0.592,1.120,0.809,0.375,0.645,0.601,�k�k��,0.9,��
2021/07/18,23:50,0.621,0.926,0.593,1.119,0.808,0.375,0.644,0.600,�k��,1.2,��
